Flag for Germany Weather past 2 weeks in Wuppertal, North Rhine-Westphalia, Germany

Now
57 °F

Clear.


Feels Like: 56 °F
Forecast: 51 / 65 °F
Wind: 7 mph from Northeast

Location: Duesseldorf


UV Index: 3 (Moderate)

Visibility: 6 mi


Pressure: 29.89 "Hg

Humidity: 82%

Dew point: 52 °F

Location of WuppertalLocation

Historic Weather in Wuppertal

°F

Wuppertal temperature yesterday

Maximum temperature yesterday: 72 °F (at 3:20 PM)
Minimum temperature yesterday: 46 °F (at 6:20 AM)
Average temperature yesterday: 60 °F

Past Weeks' High & Low Weather Summary

 TemperatureHumidityPressure
High72 °F (Apr 20, 1:50 PM)94% (Apr 22, 6:50 AM)30.45 "Hg (Apr 22, 6:50 AM)
Low30 °F (Apr 16, 4:50 AM)24% (Apr 17, 4:50 PM)29.62 "Hg (Apr 21, 5:20 PM)
Average53 °F65%30.03 "Hg
* Reported Apr 10 8:20 AM — Apr 25 8:50 AM, Wuppertal, Weather by CustomWeather, © 2014

Note: Actual official high and low records may vary slightly from our data, if they occured in-between our weather recording intervals... More about our weather records

Advertising

Historic Weather Conditions — Data for Previous 24 hours

 ConditionsComfort  
Time TempWeatherWind HumidityBarometerVisibility
8:50 AM
Apr 25
55 °FClear.8 mph82%29.89 "Hg6 mi
8:20 AM54 °FClear.7 mph88%29.89 "Hg5 mi
7:50 AM52 °FFog.7 mph94%29.89 "Hg5 mi
7:20 AM52 °FFog.6 mph88%29.89 "Hg5 mi
6:50 AM52 °FFog.7 mph88%29.89 "Hg6 mi
6:20 AM52 °FFog.6 mph88%29.89 "Hg6 mi
5:50 AM52 °FClear.7 mph88%29.89 "Hg10 mi
5:20 AM52 °FClear.7 mph88%29.89 "Hg10 mi
4:50 AM52 °FFog.6 mph94%29.92 "HgN/A
4:20 AM52 °FFog.6 mph94%29.92 "HgN/A
3:50 AM52 °FFog.5 mph94%29.92 "HgN/A
3:20 AM54 °FFog.5 mph88%29.92 "HgN/A
2:50 AM54 °FClear.5 mph94%29.92 "Hg10 mi
2:20 AM55 °FClear.6 mph88%29.92 "Hg10 mi
1:20 AM57 °FClear.7 mph88%29.95 "Hg10 mi
12:50 AM55 °FClear.7 mph94%29.95 "Hg10 mi
12:20 AM57 °FClear.7 mph88%29.98 "Hg10 mi
11:50 PM
Apr 24
57 °FRain showers. Passing clouds.1 mph88%29.98 "HgN/A
11:20 PM57 °FThunderstorms. Passing clouds.17 mph88%29.98 "HgN/A
10:50 PM59 °FThunderstorms. Passing clouds.2 mph77%30.01 "HgN/A
10:20 PM61 °FStrong thunderstorms. Passing clouds.16 mph72%30.01 "Hg4 mi
9:50 PM63 °FScattered showers. Clear.2 mph52%29.98 "HgN/A
9:20 PM63 °FLight rain. Clear.7 mph64%29.98 "HgN/A
8:50 PM63 °FSprinkles. Partly sunny.5 mph64%29.98 "HgN/A
8:20 PM63 °FSprinkles. Partly sunny.6 mph59%29.98 "HgN/A
7:50 PM64 °FScattered showers. Partly sunny.5 mph52%29.98 "HgN/A
7:20 PM66 °FBroken clouds.6 mph49%29.98 "HgN/A
6:50 PM66 °FSprinkles. Broken clouds.8 mph49%29.98 "HgN/A
6:20 PM66 °FScattered showers. Scattered clouds.12 mph49%30.01 "HgN/A
5:50 PM68 °FScattered showers. Scattered clouds.13 mph46%30.01 "HgN/A
5:20 PM70 °FScattered clouds.15 mph46%30.01 "HgN/A
4:50 PM70 °FScattered clouds.21 mph43%30.01 "HgN/A
4:20 PM72 °FPassing clouds.5 mph44%30.01 "HgN/A
3:50 PM72 °FPassing clouds.3 mph44%30.01 "HgN/A
3:20 PM72 °FPassing clouds.3 mph44%30.04 "HgN/A
2:50 PM70 °FScattered clouds.1 mph50%30.04 "HgN/A
2:20 PM68 °FBroken clouds.2 mph53%30.07 "HgN/A
1:50 PM66 °FBroken clouds.2 mph56%30.07 "HgN/A
1:20 PM66 °FBroken clouds.2 mph52%30.07 "HgN/A
12:50 PM64 °FBroken clouds.5 mph56%30.07 "HgN/A
12:20 PM66 °FBroken clouds.6 mph52%30.09 "HgN/A
11:50 AM64 °FLight rain. Broken clouds.6 mph60%30.09 "HgN/A
11:20 AM64 °FScattered clouds.6 mph60%30.09 "HgN/A
10:50 AM64 °FScattered clouds.2 mph56%30.09 "HgN/A
10:20 AM63 °FSunny.6 mph59%30.09 "Hg10 mi
9:20 AM57 °FSunny.6 mph72%30.09 "Hg10 mi
Weather by CustomWeather, © 2014

See weather overview